Altoona, PA

5:42 AM EDT on August 22, 2017 (GMT -0400)
Altoona-Blair County

Weather History for KAOO - October, 2013

Change the Weather History Date:

Thursday, October 31, 2013

  Actual Average Record
Temperature  
Mean Temperature 60 °F 47 °F  
Max Temperature 64 °F 56 °F 78 °F (1950)
Min Temperature 55 °F 38 °F 21 °F (1988)
Degree Days  
Heating Degree Days 5 18  
Month to date heating degree days 338 436  
Since 1 July heating degree days 507 607  
Cooling Degree Days 0 0  
Month to date cooling degree days 32 5  
Year to date cooling degree days 695 522  
Growing Degree Days 9 (Base 50)    
Moisture  
Dew Point 54 °F    
Average Humidity 89    
Maximum Humidity 100    
Minimum Humidity 77    
Precipitation  
Precipitation 0.19 in 0.09 in 0.86 in (1989)
Month to date precipitation 3.93 2.60  
Year to date precipitation 24.98 26.98  
Sea Level Pressure  
Sea Level Pressure 29.97 in    
Wind  
Wind Speed 8 mph (South)    
Max Wind Speed 26 mph    
Max Gust Speed 38 mph    
Visibility 8 miles    
Events Rain    
T = Trace of Precipitation, MM = Missing Value Source: NWS Daily Summary

Daily Weather History Graph

Daily Weather History Graph

Search for Another Location

Airport or City:

Trip Planner

Search our weather history database for the weather conditions in past years. The results will help you decide how hot, cold, wet, or windy it might be!

Date:

Astronomy

Oct. 31, 2013 Rise Set
Actual Time 7:41 AM EDT 6:11 PM EDT
Civil Twilight 7:13 AM EDT 6:39 PM EDT
Nautical Twilight 6:41 AM EDT 7:11 PM EDT
Astronomical Twilight 6:09 AM EDT 7:43 PM EDT
Moon 4:29 AM EDT (10/31) 4:28 PM EDT (10/31)
Length of Visible Light 11h 25m
Length of Day
10h 29m
Waning Crescent, 10% of the Moon is Illuminated
Oct 31
Waning Crescent
Nov 3
New
Nov 10
First Quarter
Nov 17
Full
Nov 25
Last Quarter

Hourly Weather History & Observations

Time (EDT) Temp. Dew Point Humidity Pressure Visibility Wind Dir Wind Speed Gust Speed Precip Events Conditions
12:53 AM 57.9 °F 50.0 °F 75% 30.14 in 10.0 mi South 5.8 mph - N/A   Overcast
1:15 AM 55.9 °F 51.1 °F 84% 30.14 in 10.0 mi SSW 5.8 mph - N/A   Overcast
1:27 AM 55.0 °F 50.0 °F 83% 30.14 in 9.0 mi NW 3.5 mph - N/A   Overcast
1:53 AM 55.0 °F 50.0 °F 83% 30.14 in 8.0 mi Calm Calm - N/A   Overcast
2:53 AM 57.9 °F 51.1 °F 78% 30.11 in 10.0 mi South 8.1 mph - N/A   Overcast
3:00 AM 57.9 °F 51.1 °F 78% 30.12 in 10.0 mi South 8.1 mph - N/A   Overcast
3:27 AM 57.9 °F 51.1 °F 78% 30.10 in 10.0 mi South 8.1 mph - N/A   Overcast
3:53 AM 57.9 °F 51.1 °F 78% 30.09 in 10.0 mi South 8.1 mph - N/A   Overcast
4:53 AM 57.0 °F 51.1 °F 81% 30.08 in 10.0 mi South 9.2 mph - N/A   Overcast
5:53 AM 57.0 °F 53.1 °F 87% 30.06 in 9.0 mi West 3.5 mph - N/A   Overcast
6:53 AM 55.9 °F 54.0 °F 93% 30.06 in 6.0 mi South 4.6 mph - 0.01 in   Overcast
7:53 AM 55.9 °F 54.0 °F 93% 30.05 in 6.0 mi Calm Calm - 0.00 in   Overcast
8:53 AM 55.9 °F 55.0 °F 97% 30.06 in 4.0 mi Calm Calm - 0.00 in   Overcast
9:53 AM 59.0 °F 55.9 °F 90% 30.04 in 6.0 mi SSW 4.6 mph - N/A   Overcast
10:53 AM 62.1 °F 55.9 °F 80% 30.00 in 9.0 mi Calm Calm - N/A   Mostly Cloudy
11:53 AM 63.0 °F 55.9 °F 78% 29.97 in 9.0 mi South 8.1 mph - N/A   Mostly Cloudy
12:53 PM 62.1 °F 57.0 °F 84% 29.95 in 8.0 mi South 9.2 mph - 0.00 in Rain Light Rain
1:53 PM 63.0 °F 57.9 °F 84% 29.92 in 8.0 mi SW 9.2 mph - 0.00 in Rain Light Rain
2:53 PM 63.0 °F 57.9 °F 84% 29.87 in 10.0 mi SSE 8.1 mph - 0.01 in   Mostly Cloudy
3:53 PM 62.1 °F 57.0 °F 84% 29.86 in 6.0 mi Calm Calm - 0.00 in Rain Light Rain
4:53 PM 61.0 °F 57.0 °F 87% 29.85 in 7.0 mi South 9.2 mph - 0.01 in Rain Light Rain
5:53 PM 61.0 °F 57.0 °F 87% 29.83 in 6.0 mi South 3.5 mph - 0.00 in Rain Light Rain
6:53 PM 61.0 °F 57.0 °F 87% 29.82 in 8.0 mi South 5.8 mph - 0.01 in Rain Light Rain
7:53 PM 60.1 °F 57.0 °F 90% 29.81 in 5.0 mi South 9.2 mph - 0.03 in Rain Light Rain
8:53 PM 59.0 °F 55.9 °F 90% 29.77 in 6.0 mi South 13.8 mph - 0.03 in Rain Light Rain
9:53 PM 59.0 °F 55.9 °F 90% 29.73 in 7.0 mi SSW 15.0 mph - 0.02 in Rain Light Rain
10:53 PM 59.0 °F 57.0 °F 93% 29.70 in 6.0 mi South 18.4 mph 23.0 mph 0.05 in Rain Light Rain
11:53 PM 59.0 °F 55.9 °F 90% 29.65 in 7.0 mi SSW 15.0 mph - 0.01 in Rain Light Rain